sat.trackr.live / text

‹ back to catalog

STARLINK-36589

NORAD 67843 · 2026-033Y

PAYLOAD ACTIVE UNKNOWN

§ Identity

Operator
Country
US
Launch date
2026-02-16
Launch site
AFETR
Launch vehicle
Mass (kg)
RCS (m²)

Purposes: comms

External: N2YO · Heavens-Above · Gunter

§ Orbital elements

Epoch: 2026-05-25T04:09:30.481344Z

Period
94.27 min
Inclination
43.0005°
Eccentricity
0.0003373
Mean motion
15.27584423 rev/d
Perigee alt
480.7 km
Apogee alt
485.4 km
Semi-major
6,861.2 km
B*
5.8349e-4
RAAN
194.8964°
Arg perigee
296.6414°
Mean anomaly
63.4092°
Rev number
1,637

§ Raw data

STARLINK-365891 67843U 26033Y   26145.17326946  .00015832  00000+0  58349-3 0  99982 67843  43.0005 194.8964 0003373 296.6414  63.4092 15.27584423 16373

JSON: /api/v1/satellites/67843 · /tle

For live sub-satellite position, see the globe view (requires WebGL).

§ Visibility from observer

Set your observer location to see the next 7 days of passes ≥ 10°. The values pass through the URL so the page stays shareable.

No JS? Fill the form by hand. The geolocation button needs JavaScript.